Showing default

GHGSAT-C7, 56209

Orbit data source: Space-Track

GHGSAT-C7, 56209 is a payload satellite owned by GHG (CA) in SSO that was launched on Sat, 15 Apr 2023 UTC via an FALCON 9 launch vehicle from the Air Force Western Test Range (AFWTR). Payload-class satellites include a variety of spacecraft equipped with specific instruments for various scientific and technological missions. These include communications satellites like Starlink; space stations such as the ISS; scientific satellites like the Hubble; Earth observation satellites from companies like Planet Labs, Umbra, and HawkEye 360; GPS; miniature CubeSats for education and research; and military/defense satellites.

Loading next visibility...
Identifier
56209, 2023-054AH
Orbit
SSO
Country
Flag of CACA
Related business
Manufacturer
UTIAS-SFL
Mission
Operational Commercial Earth Obs Sci
Bus & Motor
NEMO-V1, Unknown motor
Mass
15 kg wet, 15 kg dry
Launch date (UTC)
2023-04-15 (3 years ago)
Launch vehicle
FALCON 9
Launch site
Air Force Western Test Range (AFWTR)
Object type
Payload
Rocket body
Debris
Shape & HBR
Box, 1.0 m
Radar Cross Section
0.100 m², Medium (>0.1 m² and < 1m²)

Expand to show TLE details & history
Last TLE update: 4 hours ago

TLE from 4 hours ago
0 GHGSAT-C7
1 56209U 23054AH  25310.97576249  .00015617  00000-0  34186-3 0  9991
2 56209  97.3131 212.2021 0010501 116.8169 243.4155 15.44156297144037
Epoch: 2025-11-06T23:25Z
TLE epoch observation values (Epoch: 2025-11-06T23:25:05.879Z)
Latitude
0.00004°
Longitude
174.50124°
Altitude
440.192 km
Speed
7.646 km/s
True Right ascension
14h 08m 48s
True Declination
0° 00' 00"
Sunlit
Object was in daylight at epoch
Visualization orbit readout
Latitude
Unknown
Longitude
Unknown
Altitude
Unknown
Speed
Unknown
Apparent Right ascension
Unknown
Apparent Declination
Unknown
Sunlit
N/A
Visualization observer readout
Local Sidereal Time
23:10:32
Azimuth
Unknown
Elevation
Unknown
Doppler factor
Unknown
Orbital elements
Apogee altitude
437.938 km
Perigee altitude
423.638 km
Semi-major axis
6,808.925 km
Eccentricity
0.00105
Inclination
97.3131°
RAAN
212.2021°
Arg. of periapsis
116.8169°
True anomaly
243.30795°
Mean anomaly
243.4155°
Eccentric anomaly
243.36172°
Mean motion
3.86301 °/min
Orbital period
93.19 mins
BSTAR
0.00034186
Loading maneuver chart data...
Computing Atmospheric mass density...

Documentation

Showing up to 5 results
|